When you browse on this site, cookies collect data to enhance your experience and personalize the content and advertising you see.
Visit our Privacy Policy to learn more. By continuing to use the site, you agree to this use of cookies and data.
  • In Spain
  • List of Countries
  • For 7 days
  • Water Temperature
  • Weather Map
  • Weather Widgets
  • user-avatar
    Login

    Hourly Weather Masvingo

    Today, 22 October, Tuesday

    Time Temperature Precipitation Wind Pressure Humidity
    00:00 +28°C° 0 mm 4 mps 668 mmHg 28%
    01:00 +28°C° 0 mm 4 mps 668 mmHg 29%
    02:00 +27°C° 0 mm 4 mps 668 mmHg 31%
    03:00 +27°C° 0 mm 4 mps 668 mmHg 33%
    04:00 +26°C° 0 mm 4 mps 669 mmHg 34%
    05:00 +26°C° 0 mm 4 mps 669 mmHg 35%
    06:00 +25°C° 0 mm 5 mps 670 mmHg 47%
    07:00 +25°C° 0 mm 5 mps 671 mmHg 58%
    08:00 +24°C° 0 mm 6 mps 671 mmHg 69%
    09:00 +24°C° 0 mm 6 mps 671 mmHg 67%
    10:00 +26°C° 0 mm 6 mps 671 mmHg 65%
    11:00 +26°C° 0 mm 6 mps 671 mmHg 63%
    12:00 +26°C° 0 mm 6 mps 671 mmHg 62%
    13:00 +27°C° 0 mm 6 mps 670 mmHg 61%
    14:00 +27°C° 0 mm 6 mps 670 mmHg 60%
    15:00 +26°C° 0 mm 6 mps 669 mmHg 62%
    16:00 +24°C° 0 mm 6 mps 669 mmHg 64%
    17:00 +23°C° 0 mm 5 mps 669 mmHg 66%
    18:00 +22°C° 0 mm 5 mps 669 mmHg 71%
    19:00 +21°C° 0 mm 4 mps 669 mmHg 76%
    20:00 +20°C° 0 mm 3 mps 670 mmHg 80%
    21:00 +20°C° 0 mm 3 mps 670 mmHg 82%
    22:00 +20°C° 0 mm 3 mps 670 mmHg 84%
    23:00 +19°C° 0 mm 2 mps 669 mmHg 85%

    Tomorrow, 23 October, Wednesday

    Time Temperature Precipitation Wind Pressure Humidity
    00:00 +19°C° 0 mm 2 mps 669 mmHg 88%
    01:00 +18°C° 0 mm 2 mps 669 mmHg 90%
    02:00 +19°C° 0 mm 1 mps 668 mmHg 93%
    03:00 +18°C° 0 mm 2 mps 668 mmHg 91%
    04:00 +19°C° 0 mm 2 mps 668 mmHg 88%
    05:00 +19°C° 0 mm 2 mps 668 mmHg 86%
    06:00 +22°C° 0 mm 3 mps 669 mmHg 69%
    07:00 +26°C° 0 mm 4 mps 670 mmHg 52%
    08:00 +30°C° 0 mm 5 mps 671 mmHg 35%
    09:00 +34°C° 0 mm 5 mps 671 mmHg 27%
    10:00 +37°C° 0 mm 5 mps 671 mmHg 20%
    11:00 +41°C° 0 mm 4 mps 671 mmHg 12%
    12:00 +41°C° 0 mm 4 mps 670 mmHg 11%
    13:00 +42°C° 0 mm 3 mps 669 mmHg 11%
    14:00 +41°C° 0 mm 2 mps 669 mmHg 10%
    15:00 +41°C° 0 mm 2 mps 668 mmHg 10%
    16:00 +40°C° 0 mm 2 mps 668 mmHg 11%
    17:00 +40°C° 0 mm 2 mps 668 mmHg 11%
    18:00 +37°C° 0 mm 2 mps 668 mmHg 14%
    19:00 +35°C° 0 mm 3 mps 668 mmHg 17%
    20:00 +31°C° 0 mm 3 mps 668 mmHg 20%
    21:00 +32°C° 0 mm 4 mps 669 mmHg 22%
    22:00 +30°C° 0 mm 4 mps 669 mmHg 24%
    23:00 +29°C° 0 mm 5 mps 669 mmHg 25%

    Day after tomorrow, 24 October, Thursday

    Time Temperature Precipitation Wind Pressure Humidity
    00:00 +29°C° 0 mm 4 mps 669 mmHg 26%
    01:00 +28°C° 0 mm 3 mps 669 mmHg 28%
    02:00 +27°C° 0 mm 3 mps 669 mmHg 29%
    03:00 +27°C° 0 mm 3 mps 669 mmHg 31%
    04:00 +26°C° 0 mm 3 mps 669 mmHg 34%
    05:00 +25°C° 0 mm 3 mps 669 mmHg 37%
    06:00 +28°C° 0 mm 3 mps 670 mmHg 32%
    07:00 +32°C° 0 mm 4 mps 671 mmHg 28%
    08:00 +35°C° 0 mm 4 mps 672 mmHg 23%
    09:00 +37°C° 0 mm 3 mps 672 mmHg 19%
    10:00 +39°C° 0 mm 3 mps 672 mmHg 16%
    11:00 +42°C° 0 mm 2 mps 672 mmHg 12%
    12:00 +43°C° 0 mm 3 mps 671 mmHg 12%
    13:00 +42°C° 0 mm 3 mps 671 mmHg 11%
    14:00 +42°C° 0 mm 4 mps 670 mmHg 11%
    15:00 +42°C° 0 mm 4 mps 670 mmHg 11%
    16:00 +41°C° 0 mm 5 mps 670 mmHg 11%
    17:00 +41°C° 0 mm 5 mps 669 mmHg 12%
    18:00 +37°C° 0 mm 4 mps 670 mmHg 15%
    19:00 +35°C° 0 mm 4 mps 670 mmHg 18%
    20:00 +31°C° 0 mm 3 mps 670 mmHg 22%
    21:00 +31°C° 0 mm 3 mps 670 mmHg 25%
    22:00 +30°C° 0 mm 3 mps 670 mmHg 28%
    23:00 +29°C° 0 mm 3 mps 671 mmHg 31%

    25 October, Friday

    Time Temperature Precipitation Wind Pressure Humidity
    00:00 +28°C° 0 mm 3 mps 670 mmHg 35%
    01:00 +27°C° 0 mm 2 mps 670 mmHg 40%
    02:00 +26°C° 0 mm 2 mps 670 mmHg 44%
    03:00 +25°C° 0 mm 2 mps 670 mmHg 48%
    04:00 +25°C° 0 mm 1 mps 670 mmHg 52%
    05:00 +24°C° 0 mm 1 mps 670 mmHg 55%
    06:00 +27°C° 0 mm 2 mps 671 mmHg 46%
    07:00 +30°C° 0 mm 3 mps 672 mmHg 37%
    08:00 +34°C° 0 mm 4 mps 673 mmHg 29%
    09:00 +36°C° 0 mm 4 mps 673 mmHg 23%
    10:00 +38°C° 0 mm 3 mps 673 mmHg 18%
    11:00 +40°C° 0 mm 3 mps 673 mmHg 12%
    12:00 +42°C° 0 mm 3 mps 672 mmHg 11%
    13:00 +43°C° 0 mm 4 mps 671 mmHg 10%
    14:00 +43°C° 0 mm 4 mps 671 mmHg 9%
    15:00 +42°C° 0 mm 4 mps 670 mmHg 10%
    16:00 +41°C° 0 mm 4 mps 670 mmHg 12%
    17:00 +41°C° 0 mm 4 mps 669 mmHg 13%
    18:00 +37°C° 0 mm 4 mps 669 mmHg 16%
    19:00 +35°C° 0 mm 4 mps 669 mmHg 19%
    20:00 +31°C° 0 mm 3 mps 669 mmHg 22%
    21:00 +31°C° 0 mm 3 mps 670 mmHg 23%
    22:00 +30°C° 0 mm 4 mps 670 mmHg 24%
    23:00 +30°C° 0 mm 4 mps 670 mmHg 26%

    26 October, Saturday

    Time Temperature Precipitation Wind Pressure Humidity
    00:00 +29°C° 0 mm 4 mps 670 mmHg 27%
    01:00 +28°C° 0 mm 4 mps 669 mmHg 28%
    02:00 +28°C° 0 mm 4 mps 669 mmHg 28%
    03:00 +27°C° 0 mm 4 mps 669 mmHg 30%
    04:00 +27°C° 0 mm 3 mps 669 mmHg 32%
    05:00 +26°C° 0 mm 3 mps 669 mmHg 34%
    06:00 +28°C° 0 mm 4 mps 670 mmHg 30%
    07:00 +32°C° 0 mm 5 mps 671 mmHg 27%
    08:00 +35°C° 0 mm 6 mps 671 mmHg 23%
    09:00 +38°C° 0 mm 4 mps 672 mmHg 19%
    10:00 +41°C° 0 mm 2 mps 672 mmHg 16%
    11:00 +43°C° 0 mm 1 mps 672 mmHg 12%
    12:00 +43°C° 0 mm 2 mps 671 mmHg 11%
    13:00 +43°C° 0 mm 2 mps 671 mmHg 11%
    14:00 +44°C° 0 mm 3 mps 670 mmHg 10%
    15:00 +43°C° 0 mm 4 mps 669 mmHg 11%
    16:00 +42°C° 0 mm 4 mps 669 mmHg 11%
    17:00 +41°C° 0 mm 4 mps 669 mmHg 12%
    18:00 +37°C° 0 mm 4 mps 668 mmHg 15%
    19:00 +35°C° 0 mm 3 mps 668 mmHg 18%
    20:00 +31°C° 0 mm 3 mps 668 mmHg 22%
    21:00 +32°C° 0 mm 4 mps 668 mmHg 24%
    22:00 +30°C° 0 mm 4 mps 669 mmHg 26%
    23:00 +30°C° 0 mm 5 mps 669 mmHg 28%

    27 October, Sunday

    Time Temperature Precipitation Wind Pressure Humidity
    00:00 +29°C° 0 mm 5 mps 669 mmHg 30%
    01:00 +29°C° 0 mm 5 mps 669 mmHg 32%
    02:00 +29°C° 0 mm 6 mps 668 mmHg 34%
    03:00 +28°C° 0 mm 4 mps 668 mmHg 36%
    04:00 +26°C° 0 mm 3 mps 668 mmHg 38%
    05:00 +25°C° 0 mm 1 mps 668 mmHg 40%
    06:00 +28°C° 0 mm 2 mps 669 mmHg 34%
    07:00 +31°C° 0 mm 3 mps 670 mmHg 28%
    08:00 +34°C° 0 mm 4 mps 671 mmHg 22%
    09:00 +36°C° 0 mm 3 mps 671 mmHg 20%
    10:00 +38°C° 0 mm 3 mps 671 mmHg 17%
    11:00 +42°C° 0 mm 3 mps 670 mmHg 15%
    12:00 +42°C° 0 mm 3 mps 670 mmHg 14%
    13:00 +41°C° 0 mm 2 mps 669 mmHg 14%
    14:00 +41°C° 0 mm 2 mps 668 mmHg 14%
    15:00 +40°C° 0 mm 2 mps 668 mmHg 15%
    16:00 +40°C° 0 mm 2 mps 667 mmHg 16%
    17:00 +39°C° 0 mm 2 mps 667 mmHg 17%
    18:00 +36°C° 0 mm 2 mps 667 mmHg 19%
    19:00 +34°C° 0 mm 2 mps 667 mmHg 22%
    20:00 +31°C° 0 mm 2 mps 667 mmHg 24%
    21:00 +30°C° 0 mm 2 mps 667 mmHg 26%
    22:00 +29°C° 0 mm 2 mps 667 mmHg 27%
    23:00 +29°C° 0 mm 3 mps 667 mmHg 28%

    28 October, Monday

    Time Temperature Precipitation Wind Pressure Humidity
    00:00 +28°C° 0 mm 3 mps 667 mmHg 27%
    01:00 +28°C° 0 mm 3 mps 667 mmHg 26%
    02:00 +28°C° 0 mm 3 mps 666 mmHg 25%
    03:00 +28°C° 0 mm 3 mps 666 mmHg 25%
    04:00 +27°C° 0 mm 3 mps 666 mmHg 26%
    05:00 +26°C° 0 mm 3 mps 666 mmHg 26%
    06:00 +29°C° 0 mm 4 mps 667 mmHg 23%
    07:00 +33°C° 0 mm 4 mps 668 mmHg 19%
    08:00 +36°C° 0 mm 5 mps 669 mmHg 16%
    09:00 +40°C° 0 mm 4 mps 669 mmHg 14%
    10:00 +42°C° 0 mm 2 mps 669 mmHg 13%
    11:00 +44°C° 0 mm 1 mps 669 mmHg 11%
    12:00 +44°C° 0 mm 1 mps 668 mmHg 11%
    13:00 +43°C° 0 mm 1 mps 667 mmHg 12%
    14:00 +42°C° 0 mm 1 mps 667 mmHg 12%
    15:00 +41°C° 0.1 mm 2 mps 666 mmHg 13%
    16:00 +40°C° 0.1 mm 3 mps 666 mmHg 14%
    17:00 +40°C° 0.1 mm 4 mps 665 mmHg 16%
    18:00 +37°C° 0 mm 3 mps 665 mmHg 18%
    19:00 +35°C° 0 mm 2 mps 665 mmHg 20%
    20:00 +32°C° 0 mm 2 mps 665 mmHg 22%
    21:00 +32°C° 0 mm 1 mps 666 mmHg 22%
    22:00 +31°C° 0 mm 1 mps 666 mmHg 23%
    23:00 +31°C° 0 mm 1 mps 666 mmHg 23%
    Show more